This is the latest recevied weather packets stored in our database for station/object KJ4OVR-WX. If no packets are shown the sender has not sent any weather packets the latest 10 day(s).
| Time | Temp. | Humidity | Pressure | Rain* | Wind** | Luminosity | Snow |
|---|---|---|---|---|---|---|---|
| 1777860941 | 11.67° C | 65% | 1017.7 hPa | 0 mm | - | - | - |
| 1777860672 | 11.67° C | 65% | 1017.7 hPa | 0 mm | - | - | - |
| 1777860340 | 11.67° C | 64% | 1017.6 hPa | 0 mm | - | - | - |
| 1777860040 | 11.67° C | 63% | 1017.5 hPa | 0 mm | - | - | - |
| 1777859741 | 12.22° C | 61% | 1017.3 hPa | 0 mm | - | - | - |
| 1777859441 | 12.22° C | 60% | 1017.3 hPa | 0 mm | - | - | - |
| 1777859203 | 12.22° C | 58% | 1017.1 hPa | 0 mm | - | - | - |
| 1777858842 | 12.78° C | 58% | 1017.1 hPa | 0 mm | - | - | - |
| 1777858541 | 12.78° C | 57% | 1017.1 hPa | 0 mm | - | - | - |
| 1777858251 | 12.78° C | 57% | 1017 hPa | 0 mm | - | - | - |
| 1777857941 | 13.33° C | 56% | 1017 hPa | 0 mm | - | - | - |
| 1777857641 | 13.33° C | 56% | 1016.9 hPa | 0 mm | - | - | - |
| 1777857463 | 13.33° C | 56% | 1016.8 hPa | 0 mm | - | - | - |
| 1777857041 | 13.89° C | 56% | 1016.7 hPa | 0 mm | - | - | - |
| 1777856741 | 13.89° C | 55% | 1016.6 hPa | 0 mm | - | - | - |
| 1777856441 | 14.44° C | 54% | 1016.6 hPa | 0 mm | - | - | - |
| 1777856141 | 14.44° C | 53% | 1016.5 hPa | 0 mm | - | - | - |
| 1777855841 | 15° C | 53% | 1016.4 hPa | 0 mm | - | - | - |
| 1777855604 | 15° C | 52% | 1016.4 hPa | 0 mm | - | - | - |
| 1777855242 | 15.56° C | 51% | 1016.3 hPa | 0 mm | - | - | - |
| 1777854942 | 15.56° C | 51% | 1016.2 hPa | 0 mm | - | - | - |
| 1777854644 | 16.11° C | 51% | 1016.3 hPa | 0 mm | - | - | - |
| 1777854342 | 16.11° C | 51% | 1016.3 hPa | 0 mm | - | - | - |
| 1777854102 | 16.11° C | 50% | 1016.3 hPa | 0 mm | - | - | - |
| 1777853742 | 16.67° C | 50% | 1016.2 hPa | 0 mm | - | - | - |
* Rain latest hour (hover to see other rain measurements)
** Current wind speed in m/s (hover to see current wind gust speed)